• In Uzbekistan
  • List of Countries
  • For 7 days
  • Water Temperature
  • Satellite Maps
  • Weather Map
  • Weather Widgets
  • user-avatar
    Login

    Hourly Weather Giumri

    Today, 18 July, Thursday

    Time Temperature Precipitation Wind Pressure Humidity
    00:00 +17°C° 0 mm 2 mps 631 mmHg 82%
    01:00 +17°C° 0 mm 2 mps 631 mmHg 83%
    02:00 +16°C° 0 mm 2 mps 631 mmHg 84%
    03:00 +16°C° 0 mm 2 mps 631 mmHg 85%
    04:00 +18°C° 0 mm 1 mps 631 mmHg 84%
    05:00 +18°C° 0 mm 1 mps 631 mmHg 83%
    06:00 +18°C° 0 mm 1 mps 632 mmHg 82%
    07:00 +21°C° 0 mm 1 mps 632 mmHg 71%
    08:00 +23°C° 0 mm 1 mps 633 mmHg 61%
    09:00 +25°C° 0 mm 1 mps 634 mmHg 49%
    10:00 +27°C° 0 mm 2 mps 634 mmHg 43%
    11:00 +28°C° 0 mm 2 mps 634 mmHg 37%
    12:00 +29°C° 0 mm 2 mps 634 mmHg 31%
    13:00 +29°C° 0 mm 2 mps 634 mmHg 31%
    14:00 +30°C° 0 mm 3 mps 634 mmHg 31%
    15:00 +30°C° 0 mm 3 mps 634 mmHg 30%
    16:00 +29°C° 0 mm 3 mps 634 mmHg 37%
    17:00 +28°C° 0 mm 3 mps 633 mmHg 44%
    18:00 +27°C° 0 mm 3 mps 633 mmHg 50%
    19:00 +25°C° 0 mm 3 mps 633 mmHg 57%
    20:00 +23°C° 0 mm 2 mps 633 mmHg 63%
    21:00 +20°C° 0 mm 2 mps 632 mmHg 70%
    22:00 +20°C° 0 mm 2 mps 633 mmHg 70%
    23:00 +19°C° 0 mm 2 mps 633 mmHg 71%

    Tomorrow, 19 July, Friday

    Time Temperature Precipitation Wind Pressure Humidity
    00:00 +19°C° 0 mm 2 mps 633 mmHg 71%
    01:00 +18°C° 0 mm 2 mps 633 mmHg 73%
    02:00 +17°C° 0 mm 2 mps 633 mmHg 76%
    03:00 +17°C° 0 mm 2 mps 633 mmHg 78%
    04:00 +17°C° 0 mm 2 mps 633 mmHg 79%
    05:00 +17°C° 0 mm 2 mps 633 mmHg 79%
    06:00 +17°C° 0 mm 2 mps 633 mmHg 80%
    07:00 +19°C° 0 mm 2 mps 634 mmHg 74%
    08:00 +21°C° 0 mm 2 mps 635 mmHg 68%
    09:00 +24°C° 0 mm 2 mps 635 mmHg 63%
    10:00 +26°C° 0.1 mm 2 mps 636 mmHg 58%
    11:00 +27°C° 0.1 mm 2 mps 636 mmHg 54%
    12:00 +28°C° 0.1 mm 3 mps 636 mmHg 49%
    13:00 +28°C° 0.2 mm 3 mps 636 mmHg 50%
    14:00 +28°C° 0.2 mm 4 mps 636 mmHg 52%
    15:00 +28°C° 0.2 mm 4 mps 636 mmHg 53%
    16:00 +27°C° 0.2 mm 5 mps 635 mmHg 57%
    17:00 +26°C° 0.2 mm 5 mps 635 mmHg 61%
    18:00 +25°C° 0.2 mm 5 mps 635 mmHg 65%
    19:00 +22°C° 0 mm 4 mps 635 mmHg 71%
    20:00 +21°C° 0 mm 4 mps 635 mmHg 77%
    21:00 +19°C° 0 mm 4 mps 635 mmHg 82%
    22:00 +18°C° 0 mm 3 mps 635 mmHg 84%
    23:00 +18°C° 0 mm 3 mps 636 mmHg 85%

    Day after tomorrow, 20 July, Saturday

    Time Temperature Precipitation Wind Pressure Humidity
    00:00 +17°C° 0 mm 3 mps 636 mmHg 86%
    01:00 +17°C° 0 mm 2 mps 636 mmHg 87%
    02:00 +17°C° 0 mm 2 mps 636 mmHg 88%
    03:00 +16°C° 0 mm 2 mps 636 mmHg 88%
    04:00 +17°C° 0 mm 2 mps 636 mmHg 87%
    05:00 +17°C° 0 mm 2 mps 636 mmHg 86%
    06:00 +18°C° 0 mm 2 mps 636 mmHg 85%
    07:00 +19°C° 0 mm 2 mps 637 mmHg 79%
    08:00 +21°C° 0 mm 2 mps 637 mmHg 72%
    09:00 +24°C° 0 mm 3 mps 638 mmHg 66%
    10:00 +25°C° 0 mm 3 mps 638 mmHg 62%
    11:00 +27°C° 0 mm 3 mps 639 mmHg 58%
    12:00 +28°C° 0 mm 3 mps 639 mmHg 55%
    13:00 +28°C° 0 mm 4 mps 639 mmHg 55%
    14:00 +28°C° 0 mm 4 mps 638 mmHg 56%
    15:00 +28°C° 0 mm 4 mps 638 mmHg 56%
    16:00 +27°C° 0 mm 4 mps 638 mmHg 61%
    17:00 +26°C° 0 mm 5 mps 638 mmHg 65%
    18:00 +25°C° 0 mm 5 mps 637 mmHg 69%
    19:00 +23°C° 0 mm 4 mps 637 mmHg 73%
    20:00 +21°C° 0 mm 4 mps 637 mmHg 78%
    21:00 +20°C° 0 mm 3 mps 637 mmHg 82%
    22:00 +19°C° 0 mm 3 mps 637 mmHg 83%
    23:00 +19°C° 0 mm 3 mps 637 mmHg 83%

    21 July, Sunday

    Time Temperature Precipitation Wind Pressure Humidity
    00:00 +18°C° 0 mm 3 mps 637 mmHg 84%
    01:00 +18°C° 0 mm 3 mps 637 mmHg 84%
    02:00 +18°C° 0 mm 3 mps 637 mmHg 84%
    03:00 +17°C° 0 mm 3 mps 637 mmHg 84%
    04:00 +17°C° 0 mm 3 mps 637 mmHg 84%
    05:00 +17°C° 0 mm 3 mps 637 mmHg 83%
    06:00 +18°C° 0 mm 3 mps 637 mmHg 82%
    07:00 +19°C° 0 mm 3 mps 637 mmHg 76%
    08:00 +21°C° 0 mm 3 mps 638 mmHg 69%
    09:00 +24°C° 0 mm 3 mps 638 mmHg 62%
    10:00 +25°C° 0 mm 4 mps 638 mmHg 60%
    11:00 +27°C° 0 mm 4 mps 638 mmHg 57%
    12:00 +28°C° 0 mm 4 mps 638 mmHg 54%
    13:00 +28°C° 0 mm 4 mps 638 mmHg 54%
    14:00 +28°C° 0 mm 4 mps 638 mmHg 54%
    15:00 +29°C° 0 mm 4 mps 637 mmHg 53%
    16:00 +28°C° 0 mm 4 mps 637 mmHg 57%
    17:00 +27°C° 0 mm 4 mps 637 mmHg 61%
    18:00 +26°C° 0 mm 5 mps 637 mmHg 65%
    19:00 +23°C° 0 mm 4 mps 636 mmHg 69%
    20:00 +21°C° 0 mm 4 mps 636 mmHg 73%
    21:00 +20°C° 0 mm 4 mps 636 mmHg 77%
    22:00 +19°C° 0 mm 3 mps 636 mmHg 77%
    23:00 +18°C° 0 mm 3 mps 636 mmHg 76%

    22 July, Monday

    Time Temperature Precipitation Wind Pressure Humidity
    00:00 +18°C° 0 mm 3 mps 635 mmHg 76%
    01:00 +18°C° 0 mm 3 mps 635 mmHg 77%
    02:00 +17°C° 0 mm 3 mps 635 mmHg 78%
    03:00 +17°C° 0 mm 2 mps 635 mmHg 78%
    04:00 +17°C° 0 mm 2 mps 635 mmHg 78%
    05:00 +17°C° 0 mm 2 mps 635 mmHg 77%
    06:00 +18°C° 0 mm 2 mps 635 mmHg 77%
    07:00 +20°C° 0 mm 2 mps 635 mmHg 70%
    08:00 +24°C° 0 mm 3 mps 636 mmHg 63%
    09:00 +26°C° 0 mm 3 mps 637 mmHg 56%
    10:00 +27°C° 0 mm 3 mps 637 mmHg 54%
    11:00 +29°C° 0 mm 3 mps 637 mmHg 51%
    12:00 +30°C° 0 mm 3 mps 637 mmHg 48%
    13:00 +30°C° 0.1 mm 4 mps 636 mmHg 49%
    14:00 +30°C° 0.1 mm 4 mps 636 mmHg 50%
    15:00 +30°C° 0.1 mm 5 mps 636 mmHg 52%
    16:00 +29°C° 0.1 mm 5 mps 635 mmHg 56%
    17:00 +27°C° 0.1 mm 5 mps 635 mmHg 61%
    18:00 +26°C° 0.1 mm 6 mps 634 mmHg 65%
    19:00 +23°C° 0 mm 5 mps 634 mmHg 68%
    20:00 +21°C° 0 mm 5 mps 634 mmHg 71%
    21:00 +20°C° 0 mm 5 mps 634 mmHg 74%
    22:00 +19°C° 0 mm 4 mps 634 mmHg 76%
    23:00 +18°C° 0 mm 4 mps 634 mmHg 78%

    23 July, Tuesday

    Time Temperature Precipitation Wind Pressure Humidity
    00:00 +18°C° 0 mm 3 mps 634 mmHg 80%
    01:00 +18°C° 0 mm 3 mps 633 mmHg 81%
    02:00 +17°C° 0 mm 3 mps 633 mmHg 82%
    03:00 +17°C° 0 mm 2 mps 633 mmHg 84%
    04:00 +17°C° 0 mm 2 mps 633 mmHg 83%
    05:00 +17°C° 0 mm 2 mps 633 mmHg 83%
    06:00 +18°C° 0 mm 2 mps 633 mmHg 82%
    07:00 +19°C° 0 mm 2 mps 634 mmHg 76%
    08:00 +21°C° 0 mm 3 mps 634 mmHg 69%
    09:00 +24°C° 0 mm 3 mps 635 mmHg 63%
    10:00 +25°C° 0 mm 3 mps 635 mmHg 60%
    11:00 +26°C° 0 mm 3 mps 635 mmHg 57%
    12:00 +27°C° 0 mm 4 mps 635 mmHg 55%
    13:00 +28°C° 0.1 mm 4 mps 635 mmHg 54%
    14:00 +28°C° 0.1 mm 4 mps 634 mmHg 54%
    15:00 +28°C° 0.1 mm 4 mps 634 mmHg 53%
    16:00 +27°C° 0.2 mm 4 mps 634 mmHg 57%
    17:00 +26°C° 0.2 mm 4 mps 634 mmHg 61%
    18:00 +25°C° 0.2 mm 4 mps 633 mmHg 65%
    19:00 +22°C° 0.1 mm 4 mps 633 mmHg 70%
    20:00 +21°C° 0.1 mm 3 mps 633 mmHg 76%
    21:00 +19°C° 0.1 mm 3 mps 633 mmHg 82%
    22:00 +18°C° 0 mm 3 mps 633 mmHg 83%
    23:00 +18°C° 0 mm 2 mps 633 mmHg 85%
    Show more